Change the Weather History Date:

Tuesday, December 24, 2013

  Actual Average Record
Temperature  
Mean Temperature 48 °F 44 °F  
Max Temperature 63 °F 53 °F 63 °F (2013)
Min Temperature 32 °F 36 °F 20 °F (1998)
Degree Days  
Heating Degree Days 17    
Month to date heating degree days 528  
Since 1 July heating degree days 946  
Cooling Degree Days 0    
Month to date cooling degree days 0  
Year to date cooling degree days 1688  
Moisture  
Dew Point 34 °F    
Average Humidity 64    
Maximum Humidity 89    
Minimum Humidity 39    
Precipitation  
Precipitation 0.00 in 0.07 in 0.35 in (2003)
Month to date precipitation 0.27 1.21  
Year to date precipitation 4.49 11.53  
Since 1 July precipitation 0.97 3.53  
Snow  
Snow 0.00 in - - ()
Month to date snowfall 0.0  
Since 1 July snowfall 0.0  
Snow Depth 0.00 in    
Sea Level Pressure  
Sea Level Pressure 30.31 in    
Wind  
Wind Speed 3 mph (ESE)    
Max Wind Speed 8 mph    
Max Gust Speed -    
Visibility 4 miles    
Events      
T = Trace of Precipitation, MM = Missing Value Source: NWS Daily Summary

Daily Weather History Graph

Daily Weather History Graph

Search for Another Location

Airport or City:

Trip Planner

Search our weather history database for the weather conditions in past years. The results will help you decide how hot, cold, wet, or windy it might be!

Date:

Astronomy

Dec. 24, 2013 Rise Set
Actual Time 7:11 AM PST 4:49 PM PST
Civil Twilight 6:42 AM PST 5:18 PM PST
Nautical Twilight 6:09 AM PST 5:50 PM PST
Astronomical Twilight 5:38 AM PST 6:22 PM PST
Moon 11:52 PM PST (12/24) 11:17 AM PST (12/24)
Length of Visible Light 10h 35m
Length of Day
9h 37m
Waning Gibbous, 57% of the Moon is Illuminated
Dec 24
Waning Gibbous
Dec 25
Last Quarter
Jan 1
New
Jan 7
First Quarter
Jan 15
Full

Hourly Weather History & Observations

Time (PST) Temp. Windchill Dew Point Humidity Pressure Visibility Wind Dir Wind Speed Gust Speed Precip Events Conditions
12:20 AM 35.1 °F - 30.9 °F 85% 30.34 in 2.5 mi Calm Calm - N/A   Clear
12:29 AM 36.0 °F - 30.9 °F 82% 30.34 in 3.0 mi Calm Calm - N/A   Haze
12:42 AM 35.1 °F 32.2 °F 30.9 °F 85% 30.34 in 2.5 mi SW 3.5 mph - N/A   Clear
12:53 AM 35.1 °F 32.2 °F 32.0 °F 89% 30.35 in 2.5 mi WSW 3.5 mph - N/A   Clear
1:14 AM 37.0 °F - 32.0 °F 82% 30.34 in 3.0 mi Calm Calm - N/A   Haze
1:45 AM 35.1 °F - 30.9 °F 85% 30.34 in 2.5 mi Calm Calm - N/A   Clear
1:53 AM 36.0 °F - 32.0 °F 86% 30.35 in 3.0 mi Calm Calm - N/A   Clear
2:39 AM 35.1 °F - 30.9 °F 85% 30.35 in 2.5 mi Calm Calm - N/A   Clear
2:53 AM 36.0 °F 33.3 °F 32.0 °F 86% 30.35 in 2.5 mi East 3.5 mph - N/A   Clear
3:06 AM 35.1 °F 32.2 °F 32.0 °F 89% 30.35 in 3.0 mi East 3.5 mph - N/A   Clear
3:53 AM 34.0 °F 31.0 °F 30.9 °F 89% 30.35 in 4.0 mi East 3.5 mph - N/A   Clear
4:53 AM 35.1 °F - 30.9 °F 85% 30.33 in 4.0 mi Calm Calm - N/A   Clear
5:53 AM 34.0 °F 31.0 °F 30.0 °F 85% 30.34 in 5.0 mi East 3.5 mph - N/A   Clear
6:53 AM 33.1 °F 28.7 °F 28.9 °F 85% 30.33 in 4.0 mi East 4.6 mph - N/A   Clear
7:53 AM 34.0 °F 29.8 °F 30.9 °F 89% 30.33 in 4.0 mi ESE 4.6 mph - N/A   Clear
8:50 AM 42.8 °F 40.1 °F 37.4 °F 81% 30.34 in 2.5 mi ESE 4.6 mph - N/A   Haze
8:53 AM 42.1 °F 38.4 °F 37.0 °F 82% 30.34 in 2.5 mi ESE 5.8 mph - N/A   Haze
9:20 AM 44.1 °F - 36.0 °F 73% 30.34 in 3.0 mi Calm Calm - N/A   Haze
9:32 AM 45.0 °F 43.5 °F 36.0 °F 71% 30.34 in 2.5 mi SE 3.5 mph - N/A   Haze
9:53 AM 46.9 °F - 37.0 °F 68% 30.34 in 2.5 mi South 4.6 mph - N/A   Haze
10:11 AM 48.9 °F - 37.0 °F 64% 30.34 in 3.0 mi SE 4.6 mph - N/A   Haze
10:53 AM 51.1 °F - 37.0 °F 59% 30.33 in 3.0 mi North - - N/A   Haze
11:53 AM 55.0 °F - 37.0 °F 51% 30.30 in 4.0 mi South 3.5 mph - N/A   Haze
12:53 PM 59.0 °F - 37.0 °F 44% 30.27 in 5.0 mi Variable 3.5 mph - N/A   Haze
1:53 PM 61.0 °F - 37.0 °F 41% 30.25 in 5.0 mi Variable 3.5 mph - N/A   Haze
2:53 PM 62.1 °F - 37.0 °F 39% 30.25 in 6.0 mi Calm Calm - N/A   Haze
3:53 PM 62.1 °F - 37.0 °F 39% 30.24 in 6.0 mi Calm Calm - N/A   Haze
4:53 PM 57.0 °F - 39.0 °F 51% 30.25 in 5.0 mi West 4.6 mph - N/A   Haze
5:53 PM 48.9 °F - 36.0 °F 61% 30.25 in 6.0 mi Calm Calm - N/A   Haze
6:53 PM 44.1 °F - 36.0 °F 73% 30.25 in 5.0 mi Calm Calm - N/A   Haze
7:53 PM 44.1 °F 41.5 °F 36.0 °F 73% 30.25 in 4.0 mi NE 4.6 mph - N/A   Haze
8:53 PM 42.1 °F 40.2 °F 34.0 °F 73% 30.26 in 5.0 mi ESE 3.5 mph - N/A   Haze
9:53 PM 41.0 °F 38.0 °F 34.0 °F 76% 30.27 in 4.0 mi East 4.6 mph - N/A   Haze
10:53 PM 39.0 °F 34.0 °F 33.1 °F 79% 30.28 in 4.0 mi East 6.9 mph - N/A   Haze
11:53 PM 37.9 °F 33.5 °F 33.1 °F 83% 30.29 in 4.0 mi East 5.8 mph - N/A   Haze